{"data":{"norad_id":54760,"epoch":"2026-09-20T13:47:15.367488Z","epoch_age_seconds":82885,"freshness":"FRESH","line1":"1 54760U 22175C   26263.57448342  .00000441  00000+0  23571-4 0  9995","line2":"2 54760  53.1619 244.1307 0001554  68.9757 291.1412 15.35391173209400","mean_motion":15.35391173,"eccentricity":0.0001554,"inclination_deg":53.1619,"raan_deg":244.1307,"arg_perigee_deg":68.9757,"mean_anomaly_deg":291.1412,"bstar":2.3571e-5,"rev_number":20940,"period_min":93.78717458603,"perigee_km":458.69624108324,"apogee_km":460.82145911345,"semimajor_km":6837.8958500983,"source":"CELESTRAK","updated_at":"2026-09-21T09:00:33.119770Z"}}